Location: Catenanuova
(37.5690°N, 14.6870°E)
Time: 04:55:01
(UTC+02:00)

ISS - Visible Passes

Search period start: 17 September 2021 00:00
Search period end: 27 September 2021 00:00
Orbit: 419 x 423 km, 51.6° (Epoch: 16 September)

Date Brightness Start Highest point End Pass type
(mag) Time Alt. Az. Time Alt. Az. Time Alt. Az.
17 Sep -3.8 20:01:24 10° SW 20:04:45 86° NNW 20:08:02 11° NE visible
17 Sep -0.5 21:39:58 10° WNW 21:41:03 14° NW 21:41:03 14° NW visible
18 Sep -1.3 20:52:21 10° WNW 20:54:56 20° NNW 20:56:29 15° N visible
19 Sep -1.9 20:04:55 10° W 20:07:54 29° NNW 20:10:55 10° NNE visible
20 Sep -0.8 20:57:17 10° NW 20:58:27 11° NNW 20:59:38 10° N visible
21 Sep -1.0 20:09:20 10° WNW 20:11:18 15° NNW 20:13:17 10° NNE visible
22 Sep -1.3 19:21:39 10° WNW 19:24:12 19° NNW 19:26:44 10° NNE visible
24 Sep -0.9 19:26:38 10° NW 19:27:41 11° NNW 19:28:44 10° N visible
